This is the latest recevied weather packets stored in our database for station/object K1LBG. If no packets are shown the sender has not sent any weather packets the latest 10 day(s).
| Time | Temp. | Humidity | Pressure | Rain* | Wind** | Luminosity | Snow |
|---|---|---|---|---|---|---|---|
| 1778061998 | 13.89° C | 89% | 1011 hPa | 0 mm | - | - | - |
| 1778060510 | 13.89° C | 89% | 1010.7 hPa | 0 mm | - | - | - |
| 1778057824 | 14.44° C | 88% | 1011 hPa | 0 mm | - | - | - |
| 1778056909 | 14.44° C | 87% | 1011 hPa | 0 mm | - | - | - |
| 1778055404 | 14.44° C | 87% | 1011 hPa | 0 mm | - | - | - |
| 1778053286 | 15° C | 85% | 1011.2 hPa | 0 mm | - | - | - |
| 1778052387 | 15° C | 85% | 1010.9 hPa | 0 mm | - | - | - |
| 1778049390 | 15° C | 84% | 1010.9 hPa | 0 mm | - | - | - |
| 1778047587 | 15° C | 82% | 1010.8 hPa | 0 mm | - | - | - |
| 1778047294 | 15° C | 82% | 1010.8 hPa | 0 mm | - | - | - |
| 1778045196 | 15.56° C | 80% | 1011.2 hPa | 0 mm | - | - | - |
| 1778044293 | 15.56° C | 79% | 1011.2 hPa | 0 mm | - | - | - |
| 1778041895 | 15.56° C | 78% | 1011.3 hPa | 0 mm | - | - | - |
| 1778040692 | 15.56° C | 77% | 1011.3 hPa | 0 mm | - | - | - |
| 1778037690 | 15.56° C | 75% | 1011.2 hPa | 0 mm | - | - | - |
| 1778034702 | 16.11° C | 73% | 1011.1 hPa | 0 mm | - | - | - |
| 1778033785 | 16.11° C | 73% | 1011 hPa | 0 mm | - | - | - |
| 1778032586 | 16.11° C | 73% | 1011 hPa | 0 mm | - | - | - |
| 1778032292 | 16.11° C | 73% | 1011 hPa | 0 mm | - | - | - |
| 1778032013 | 16.11° C | 73% | 1011 hPa | 0 mm | - | - | - |
| 1778030492 | 15.56° C | 74% | 1010.8 hPa | 0 mm | - | - | - |
| 1778029884 | 15.56° C | 74% | 1010.7 hPa | 0 mm | - | - | - |
| 1778025386 | 16.67° C | 72% | 1009.7 hPa | 0 mm | - | - | - |
| 1778022713 | 17.22° C | 72% | 1009.2 hPa | 0 mm | - | - | - |
| 1778022386 | 17.22° C | 72% | 1009 hPa | 0 mm | - | - | - |
* Rain latest hour (hover to see other rain measurements)
** Current wind speed in m/s (hover to see current wind gust speed)